[[{"header":{"parameterUnit":"m.s-1","parameterCategory":1,"la1":30.2991,"la2":30.254,"lo1":-89.0895,"lo2":-89.0444,"dy":0.0017,"dx":0.0017,"nx":28,"ny":28,"refTime":"2024-03-01T03:00:00:Z","depth":0,"parameterNumber":2,"parameterNumberName":"U-component_of_WINDS"},"data":[0,0,0,0,0,0,0,0,0,0,0,0,0,0,0,0,0,0,0,0,0,0,0,0,0,0,0,0,0,0,0,0,0,0,0,0,0,0,0,0,0,0,0,0,0,0,0,0,0,0,0,0,0,0,0,0,0,0,-4.8287,-4.8287,0,-4.827,-4.827,-4.827,-4.8129,-4.8125,-4.8122,-4.8118,-4.8103,-4.8106,-4.8109,0,0,0,0,0,0,0,0,0,0,0,0,0,-4.8199,-4.8201,-4.8287,-4.8287,-4.8287,-4.827,-4.827,-4.827,-4.8129,-4.8125,-4.8121,-4.8117,-4.8102,-4.8105,-4.8109,0,0,0,0,0,0,0,0,0,0,0,0,0,-4.8215,-4.8202,-4.8287,-4.8215,-4.8208,-4.8271,-4.827,-4.827,-4.813,-4.8125,-4.812,-4.8115,-4.8101,-4.8105,-4.8109,-4.8241,0,0,-4.8122,-4.8124,0,0,0,0,0,0,0,0,-4.8215,-4.8219,-4.8226,-4.822,-4.8212,-4.8196,-4.8233,-4.826,-4.8131,-4.816,-4.8118,-4.8112,-4.8138,-4.8139,-4.8148,-4.824,-4.824,-4.8123,-4.8125,-4.8127,-4.8128,0,0,0,0,0,0,0,-4.8214,-4.8219,-4.8281,-4.8226,-4.8218,-4.8183,-4.818,-4.8238,-4.8179,-4.8157,-4.8147,-4.8146,-4.8134,-4.8144,-4.8146,-4.8239,-4.8123,-4.8126,-4.8129,-4.8131,-4.8439,-4.8444,0,0,0,0,0,0,-4.8222,-4.8219,-4.8281,-4.828,-4.82,-4.8189,-4.8185,-4.8207,-4.8178,-4.8168,-4.8151,-4.814,-4.8139,-4.8141,-4.8145,-4.8297,-4.8127,-4.8131,-4.8134,-4.8433,-4.844,-4.8446,0,0,0,0,0,0,-4.8221,-4.8229,-4.8282,-4.8247,-4.8251,-4.8196,-4.8222,-4.8209,-4.8219,-4.8173,-4.8162,-4.8172,-4.8135,-4.8139,-4.8218,-4.8295,-4.8133,-4.8137,-4.8427,-4.8435,-4.8443,-4.8603,0,0,0,0,0,0,-4.8219,-4.823,-4.8279,-4.8249,-4.8253,-4.8355,-4.8226,-4.8213,-4.8227,-4.8212,-4.819,-4.8181,-4.8131,-4.8212,-4.8222,-4.8298,-4.814,-4.842,-4.8431,-4.8441,-4.8591,-4.8616,-4.8638,0,0,0,0,0,-4.8217,-4.8325,-4.8282,-4.8291,-4.8313,-4.836,-4.8362,-4.8302,-4.8233,-4.8283,-4.8253,-4.8182,-4.8285,-4.8222,-4.8232,-4.831,-4.8415,-4.8428,-4.844,-4.858,-4.8611,-4.8637,0,0,0,0,0,0,-4.8366,-4.832,-4.8272,-4.8374,-4.8372,-4.8336,-4.8396,-4.8336,-4.8354,-4.834,-4.8264,-4.8261,-4.8351,-4.8338,-4.8269,-4.8435,-4.8337,-4.8353,-4.8441,-4.847,-4.8493,-4.8494,-4.8144,0,0,0,0,0,-4.8411,-4.8452,-4.8409,-4.8504,-4.8505,-4.8451,-4.8469,-4.8423,-4.8418,-4.8416,-4.8392,-4.8391,-4.8423,-4.8445,-4.8472,-4.8588,-4.8581,-4.8647,-4.867,-4.869,-4.8704,-4.8764,-4.8793,-4.8488,-4.8488,-4.8487,0,0,-4.8505,-4.8484,-4.8515,-4.8533,-4.8526,-4.8571,-4.8451,-4.8504,-4.8536,-4.8424,-4.8497,-4.848,-4.8473,-4.8572,-4.8614,-4.8563,-4.8787,-4.8706,-4.8722,-4.8725,-4.878,-4.8809,-4.8835,-4.8496,-4.8495,-4.8493,0,0,-4.8697,-4.8686,-4.8763,-4.8758,-4.8749,-4.8712,-4.8731,-4.8704,-4.8688,-4.876,-4.8677,-4.8715,-4.8771,-4.877,-4.8777,-4.8969,-4.8905,-4.898,-4.9102,-4.9162,-4.9186,-4.9207,-4.9276,-4.9302,-4.8994,-4.8995,-4.8995,0,-4.8814,-4.8878,-4.881,-4.8868,-4.8879,-4.8779,-4.8857,-4.8855,-4.8856,-4.8866,-4.8809,-4.8878,-4.8866,-4.8963,-4.901,-4.9019,-4.9038,-4.8982,-4.9188,-4.9209,-4.9227,-4.9292,-4.9318,-4.9004,-4.9003,-4.9002,-4.9001,0,-4.9023,-4.9068,-4.9131,-4.9134,-4.9151,-4.9219,-4.9162,-4.9189,-4.9141,-4.911,-4.9185,-4.9168,-4.9189,-4.9208,-4.9162,-4.9299,-4.9268,-4.9201,-4.9101,-4.9267,-4.9326,-4.9351,-4.9017,-4.9014,-4.9011,-4.9009,0,0,-4.931,-4.9273,-4.9298,-4.9297,-4.928,-4.9314,-4.9377,-4.9397,-4.9422,-4.9425,-4.9477,-4.9527,-4.9465,-4.9473,-4.9426,-4.9478,-4.9632,-4.9405,-4.9403,-4.9448,-4.9782,-4.9833,-4.9863,-4.9589,-4.9594,-4.9597,-4.9783,0,-4.9495,-4.96,-4.9541,-4.9655,-4.9697,-4.9602,-4.9657,-4.9653,-4.9627,-4.9658,-4.9628,-4.9665,-4.958,-4.9584,-4.9632,-4.9604,-4.9698,-4.9589,-4.9637,-4.964,-4.9642,-4.9894,-4.9947,-5.0123,-4.9805,-4.9809,-4.9812,0,-4.9726,-4.9739,-4.9857,-4.9831,-4.9846,-4.9897,-4.9911,-4.9942,-4.9935,-4.9912,-4.9921,-4.9861,-4.9922,-4.9823,-4.9906,-4.9833,-4.9849,-4.9838,-4.9843,-4.9846,-4.9736,-4.9903,-5.0178,-5.0205,-4.9848,-4.9845,-4.9843,0,-4.9924,-4.9971,-5.0047,-5.005,-5.0022,-5.006,-5.005,-5.0038,-5.0054,-5.0066,-5.0076,-5.0096,-5.0107,-5.0124,-5.0071,-5.0004,-5.0162,-5.0058,-5.0145,-5.0146,-5.0182,-5.0181,-5.0464,-5.0193,-5.0192,-5.0192,-5.0191,0,-5.0137,-5.0213,-5.0136,-5.0183,-5.0266,-5.0197,-5.0281,-5.0261,-5.0251,-5.0293,-5.0213,-5.0254,-5.0182,-5.0216,-5.0176,-5.0251,-5.0256,-5.024,-5.0228,-5.0247,-5.025,-5.0257,-5.0244,-5.0199,-5.0197,-5.0196,-5.0195,0,-5.0373,-5.0324,-5.0401,-5.0368,-5.0361,-5.0424,-5.0395,-5.0438,-5.0406,-5.046,-5.0469,-5.0419,-5.0455,-5.0404,-5.0435,-5.0408,-5.0511,-5.0481,-5.0514,-5.0505,-5.0595,-5.0587,-5.0893,-5.0929,-5.0635,-5.0638,-5.064,0,-5.0512,-5.0568,-5.0541,-5.0563,-5.0558,-5.0595,-5.061,-5.0545,-5.0565,-5.0562,-5.0605,-5.0634,-5.0654,-5.0717,-5.0684,-5.0707,-5.0677,-5.0783,-5.068,-5.0698,-5.0679,-5.0677,-5.0682,-5.0804,-5.0807,-5.081,-5.0813,0,-5.0766,-5.0738,-5.0764,-5.0782,-5.0802,-5.0813,-5.0818,-5.0841,-5.0772,-5.0799,-5.0835,-5.085,-5.0882,-5.0912,-5.0927,-5.0917,-5.0855,-5.0845,-5.0866,-5.0887,-5.0904,-5.0896,-5.0571,-5.0838,-5.0836,-5.0834,-5.0833,-5.0832,-5.0957,-5.1003,-5.0991,-5.1022,-5.1019,-5.1025,-5.1064,-5.1036,-5.1064,-5.1084,-5.1044,-5.109,-5.1082,-5.1095,-5.1092,-5.1128,-5.1082,-5.1113,-5.1121,-5.113,-5.1144,-5.0898,-5.113,-5.113,-5.1129,-5.1128,-5.1128,0,-5.1207,-5.1194,-5.1224,-5.1233,-5.1257,-5.1195,-5.1197,-5.1222,-5.1263,-5.126,-5.1282,-5.1323,-5.1352,-5.1321,-5.1345,-5.1379,-5.1351,-5.1388,-5.1385,-5.1384,-5.1183,-5.1163,-5.141,-5.141,-5.141,-5.141,-5.141,-5.141,-5.134,-5.1413,-5.1385,-5.1457,-5.1443,-5.1487,-5.1494,-5.15,-5.1497,-5.1547,-5.157,-5.1549,-5.1535,-5.1557,-5.1581,-5.1571,-5.1584,-5.1631,-5.1612,-5.1425,-5.1398,-5.1371,-5.1351,-5.1635,-5.1635,-5.1809,-5.181,-5.1812]},{"header":{"parameterUnit":"m.s-1","parameterCategory":1,"la1":30.2991,"la2":30.254,"lo1":-89.0895,"lo2":-89.0444,"dy":0.0017,"dx":0.0017,"nx":28,"ny":28,"refTime":"2024-03-01T03:00:00:Z","depth":0,"parameterNumber":3,"parameterNumberName":"V-component_of_WINDS"},"data":[0,0,0,0,0,0,0,0,0,0,0,0,0,0,0,0,0,0,0,0,0,0,0,0,0,0,0,0,0,0,0,0,0,0,0,0,0,0,0,0,0,0,0,0,0,0,0,0,0,0,0,0,0,0,0,0,0,0,-3.4531,-3.4532,0,-3.4616,-3.4617,-3.4618,-3.4614,-3.4612,-3.4611,-3.461,-3.4693,-3.4697,-3.47,0,0,0,0,0,0,0,0,0,0,0,0,0,-3.4359,-3.4363,-3.4531,-3.4532,-3.4533,-3.4616,-3.4617,-3.4618,-3.4614,-3.4612,-3.4611,-3.4609,-3.4692,-3.4696,-3.47,0,0,0,0,0,0,0,0,0,0,0,0,0,-3.4438,-3.4364,-3.4531,-3.4541,-3.4543,-3.4616,-3.4617,-3.4619,-3.4614,-3.4612,-3.461,-3.4609,-3.4691,-3.4696,-3.4701,-3.4768,0,0,-3.4716,-3.4718,0,0,0,0,0,0,0,0,-3.4434,-3.4444,-3.4538,-3.454,-3.4542,-3.4602,-3.4587,-3.4669,-3.4615,-3.4587,-3.461,-3.4608,-3.4664,-3.4671,-3.4691,-3.4772,-3.4776,-3.4717,-3.472,-3.4722,-3.4723,0,0,0,0,0,0,0,-3.4428,-3.4441,-3.4565,-3.454,-3.4542,-3.454,-3.4549,-3.4603,-3.4635,-3.4589,-3.4589,-3.4599,-3.4665,-3.4686,-3.4693,-3.4777,-3.4716,-3.4721,-3.4724,-3.4726,-3.4916,-3.4917,0,0,0,0,0,0,-3.4421,-3.4436,-3.4562,-3.4567,-3.4483,-3.4544,-3.4554,-3.4585,-3.4634,-3.464,-3.4601,-3.4599,-3.4679,-3.4687,-3.4696,-3.4777,-3.4722,-3.4727,-3.4729,-3.4914,-3.4916,-3.4918,0,0,0,0,0,0,-3.4418,-3.4432,-3.4558,-3.4502,-3.4518,-3.4549,-3.4583,-3.4588,-3.4609,-3.4643,-3.4648,-3.4617,-3.4678,-3.4689,-3.475,-3.478,-3.4729,-3.4733,-3.4911,-3.4914,-3.4917,-3.494,0,0,0,0,0,0,-3.4413,-3.4431,-3.4458,-3.4502,-3.4521,-3.4613,-3.4585,-3.4591,-3.4618,-3.4616,-3.466,-3.4665,-3.4677,-3.4743,-3.4755,-3.4786,-3.4737,-3.4909,-3.4913,-3.4916,-3.4937,-3.4944,-3.495,0,0,0,0,0,-3.4407,-3.4461,-3.446,-3.4475,-3.4556,-3.4614,-3.4625,-3.4639,-3.4621,-3.4647,-3.4669,-3.4664,-3.4775,-3.4749,-3.4763,-3.4796,-3.4907,-3.4911,-3.4916,-3.4934,-3.4943,-3.495,0,0,0,0,0,0,-3.4419,-3.4467,-3.4466,-3.4537,-3.4572,-3.4614,-3.4648,-3.4647,-3.4687,-3.4683,-3.4697,-3.4707,-3.4768,-3.4788,-3.4759,-3.4863,-3.4838,-3.4846,-3.4848,-3.4856,-3.4862,-3.4855,-3.4741,0,0,0,0,0,-3.443,-3.4475,-3.4514,-3.4573,-3.459,-3.4616,-3.4642,-3.465,-3.4686,-3.47,-3.4726,-3.476,-3.4803,-3.483,-3.4872,-3.494,-3.4948,-3.4969,-3.4976,-3.4981,-3.4987,-3.5023,-3.5032,-3.4933,-3.4933,-3.4933,0,0,-3.4453,-3.4485,-3.4512,-3.4576,-3.4604,-3.4649,-3.4628,-3.4677,-3.471,-3.4707,-3.4767,-3.4787,-3.4826,-3.489,-3.492,-3.4909,-3.5016,-3.4986,-3.499,-3.4994,-3.5028,-3.5038,-3.5046,-3.4936,-3.4936,-3.4935,0,0,-3.4517,-3.4547,-3.4598,-3.4627,-3.4669,-3.4686,-3.4698,-3.474,-3.4754,-3.4814,-3.4812,-3.4851,-3.4924,-3.4952,-3.4975,-3.5049,-3.5045,-3.5062,-3.5094,-3.5129,-3.5137,-3.5144,-3.5169,-3.5178,-3.5068,-3.5068,-3.5068,0,-3.454,-3.4609,-3.4624,-3.4673,-3.4701,-3.4701,-3.4752,-3.4779,-3.4832,-3.485,-3.4837,-3.4928,-3.4954,-3.5025,-3.5043,-3.5062,-3.5075,-3.5056,-3.5135,-3.5142,-3.5149,-3.5172,-3.5182,-3.5069,-3.5069,-3.5069,-3.5069,0,-3.4634,-3.4682,-3.4718,-3.4771,-3.4802,-3.4852,-3.4873,-3.4902,-3.4907,-3.4924,-3.4984,-3.5016,-3.5063,-3.508,-3.5085,-3.5151,-3.5142,-3.5132,-3.5107,-3.5159,-3.5182,-3.5191,-3.5072,-3.5071,-3.5071,-3.507,0,0,-3.4709,-3.4769,-3.4782,-3.4805,-3.4852,-3.4888,-3.4937,-3.4984,-3.5008,-3.5045,-3.5085,-3.5146,-3.5137,-3.5163,-3.5171,-3.5202,-3.5256,-3.5188,-3.5189,-3.5198,-3.5329,-3.5336,-3.5346,-3.5254,-3.5256,-3.5258,-3.5325,0,-3.4777,-3.4866,-3.488,-3.4957,-3.5,-3.5001,-3.5043,-3.5075,-3.5092,-3.513,-3.5149,-3.5192,-3.5177,-3.5192,-3.5223,-3.5243,-3.5283,-3.5239,-3.529,-3.5292,-3.528,-3.5358,-3.5366,-3.5428,-3.5334,-3.5336,-3.5337,0,-3.4869,-3.4909,-3.499,-3.503,-3.5048,-3.5086,-3.513,-3.5167,-3.5202,-3.5213,-3.5242,-3.5246,-3.5295,-3.5269,-3.5335,-3.5305,-3.5326,-3.5339,-3.5342,-3.5347,-3.5317,-3.5364,-3.5449,-3.5458,-3.5351,-3.535,-3.5349,0,-3.4913,-3.4987,-3.5045,-3.5065,-3.5113,-3.514,-3.5161,-3.5195,-3.5222,-3.5259,-3.5276,-3.5319,-3.5341,-3.5373,-3.5387,-3.5368,-3.5452,-3.5428,-3.5461,-3.546,-3.5478,-3.5477,-3.5567,-3.5494,-3.5494,-3.5494,-3.5493,0,-3.4988,-3.5037,-3.5066,-3.5101,-3.5156,-3.5171,-3.5224,-3.5244,-3.5275,-3.5313,-3.5316,-3.5351,-3.5368,-3.5406,-3.5417,-3.5469,-3.548,-3.5488,-3.5491,-3.5488,-3.5486,-3.5501,-3.5497,-3.5496,-3.5496,-3.5495,-3.5495,0,-3.5047,-3.5068,-3.5131,-3.5172,-3.5183,-3.5221,-3.5255,-3.5288,-3.5305,-3.5353,-3.5365,-3.5391,-3.5435,-3.5453,-3.5507,-3.5515,-3.5574,-3.5574,-3.5563,-3.5563,-3.5594,-3.5591,-3.5696,-3.571,-3.5629,-3.563,-3.5631,0,-3.5092,-3.513,-3.5175,-3.5201,-3.5223,-3.5266,-3.5293,-3.5309,-3.5337,-3.5381,-3.5408,-3.5453,-3.5489,-3.5559,-3.5582,-3.5622,-3.5622,-3.5656,-3.5628,-3.5623,-3.5621,-3.5618,-3.5621,-3.5661,-3.5662,-3.5663,-3.5663,0,-3.517,-3.5179,-3.5219,-3.5263,-3.5296,-3.5331,-3.5364,-3.5385,-3.5406,-3.5437,-3.5483,-3.5511,-3.5566,-3.561,-3.5651,-3.5671,-3.567,-3.5672,-3.5681,-3.5678,-3.567,-3.5673,-3.5575,-3.5669,-3.5669,-3.5668,-3.5668,-3.5668,-3.5223,-3.5256,-3.5293,-3.5337,-3.5364,-3.5396,-3.5429,-3.545,-3.5489,-3.5536,-3.5543,-3.5591,-3.5624,-3.5681,-3.5702,-3.5739,-3.573,-3.5744,-3.5747,-3.575,-3.5752,-3.5665,-3.5747,-3.5747,-3.5746,-3.5746,-3.5746,0,-3.53,-3.5324,-3.5364,-3.5412,-3.5446,-3.5444,-3.5481,-3.5509,-3.5552,-3.5584,-3.562,-3.5671,-3.5713,-3.5739,-3.578,-3.5805,-3.5805,-3.5815,-3.5813,-3.5817,-3.5758,-3.5745,-3.5814,-3.5814,-3.5814,-3.5814,-3.5814,-3.5814,-3.5344,-3.54,-3.5413,-3.5481,-3.5504,-3.5553,-3.5574,-3.5602,-3.5627,-3.5685,-3.572,-3.5737,-3.5766,-3.581,-3.5847,-3.5854,-3.5868,-3.5879,-3.5884,-3.5829,-3.5821,-3.5815,-3.5803,-3.5882,-3.5882,-3.594,-3.594,-3.5941]}]]